Regional Weather Roundup
Issued by NWS

Home | Current Version | Previous Version | Text Only | Print | Product List | Glossary Off
Versions: 1 2 3 4 5 6 7 8 9 10 11 12 13 14 15 16 17 18 19 20 21 22 23 24 25 26 27 28 29 30 31 32 33 34 35 36 37 38 39 40 41 42 43 44 45 46 47 48 49 50

000
ASUS43 KFSD 221902
RWRSD

WEATHER ROUNDUP FOR SOUTH DAKOTA
NATIONAL WEATHER SERVICE SIOUX FALLS SD
100 PM CST WED FEB 22 2017

NOTE: "FAIR" INDICATES FEW OR NO CLOUDS BELOW 12,000 FEET WITH NO
SIGNIFICANT WEATHER AND/OR OBSTRUCTIONS TO VISIBILITY.


SDZ001>005-009-010-012>017-222000-
NORTHWEST AND NORTH CENTRAL SOUTH DAKOTA

CITY           SKY/WX    TMP DP  RH WIND       PRES   REMARKS
BUFFALO          N/A     36  32  85 NW20      29.75R
FAITH            N/A     43  37  79 N21       29.76R
MOBRIDGE       CLOUDY    40  34  79 N10       29.73R
$$

SDZ012>016-024>037-041>051-057-063-072>074-222000-
SOUTHWEST AND SOUTH CENTRAL SOUTH DAKOTA

CITY           SKY/WX    TMP DP  RH WIND       PRES   REMARKS
RAPID CTY ARPT SUNNY     57  20  23 NW20G30   29.75R
PIERRE         MOSUNNY   53  37  54 NW17G24   29.73R
CUSTER         MOSUNNY   41  19  41 NW10G20   29.78F
ELLSWORTH AFB  SUNNY     55  21  27 NW22G32   29.74R
PHILIP         SUNNY     57  28  33 NW23G31   29.74F
PINE RIDGE     SUNNY     55  24  30 W18G26    29.77F
SPEARFISH      FAIR      46  25  42 NW20      29.79F
WINNER         FAIR      60  34  37 NW22G30   29.74S
$$

SDZ004>011-016>023-039-040-222000-
NORTHEAST SOUTH DAKOTA

CITY           SKY/WX    TMP DP  RH WIND       PRES   REMARKS
ABERDEEN       CLOUDY    45  36  70 N13       29.70R
WATERTOWN      PTSUNNY   51  40  65 NW15G22   29.61R
BROOKINGS      MOSUNNY   56  42  59 W18       29.59S
SISSETON         N/A     40  37  89 N23G30    29.64F
$$

SDZ017-020-022-023-036>040-048>070-222000-
SOUTHEAST SOUTH DAKOTA

CITY           SKY/WX    TMP DP  RH WIND       PRES   REMARKS
SIOUX FALLS    MOSUNNY   61  43  51 W14       29.61F
HURON          SUNNY     52  41  66 NW17G26   29.67R
CHAMBERLAIN    SUNNY     58  40  50 NW16G25   29.72S
MITCHELL       SUNNY     60  41  49 NW23      29.66R
YANKTON        SUNNY    N/A N/A N/A W23G29    29.64S
$$

ABBREVIATIONS USED IN REMARKS
   TC - TEMPERATURE IN CELSIUS
  WCI - WIND CHILL INDEX
   HX - HEAT INDEX
  VSB - VISIBILITY





USA.gov is the U.S. government's official web portal to all federal, state and local government web resources and services.